[[{"header":{"parameterUnit":"m.s-1","parameterCategory":1,"la1":30.2991,"la2":30.254,"lo1":-89.0895,"lo2":-89.0444,"dy":0.0017,"dx":0.0017,"nx":28,"ny":28,"refTime":"2024-10-16T03:00:00:Z","depth":0,"parameterNumber":2,"parameterNumberName":"U-component_of_WINDS"},"data":[0,0,0,0,0,0,0,0,0,0,0,0,0,0,0,0,0,0,0,0,0,0,0,0,0,0,0,0,0,0,0,0,0,0,0,0,0,0,0,0,0,0,0,0,0,0,0,0,0,0,0,0,0,0,0,0,0,0,-5.0673,-5.0674,0,-5.0677,-5.0677,-5.0677,-5.0551,-5.0547,-5.0544,-5.0541,-5.0545,-5.0548,-5.0551,0,0,0,0,0,0,0,0,0,0,0,0,0,-5.0557,-5.056,-5.0673,-5.0674,-5.0674,-5.0677,-5.0677,-5.0677,-5.0551,-5.0547,-5.0543,-5.0539,-5.0543,-5.0547,-5.0551,0,0,0,0,0,0,0,0,0,0,0,0,0,-5.0589,-5.0561,-5.0673,-5.0611,-5.0606,-5.0677,-5.0677,-5.0677,-5.0552,-5.0547,-5.0542,-5.0537,-5.0542,-5.0547,-5.0552,-5.0683,0,0,-5.0566,-5.0569,0,0,0,0,0,0,0,0,-5.0588,-5.0594,-5.062,-5.0616,-5.061,-5.0608,-5.0637,-5.0679,-5.0554,-5.0573,-5.0541,-5.0535,-5.057,-5.0572,-5.0584,-5.0683,-5.0683,-5.0567,-5.057,-5.0572,-5.0573,0,0,0,0,0,0,0,-5.0586,-5.0593,-5.0675,-5.0621,-5.0614,-5.0583,-5.0582,-5.0645,-5.0599,-5.0571,-5.0561,-5.0564,-5.0566,-5.0579,-5.0583,-5.0683,-5.0567,-5.0571,-5.0574,-5.0576,-5.089,-5.0895,0,0,0,0,0,0,-5.0592,-5.0592,-5.0675,-5.0675,-5.0586,-5.0589,-5.0588,-5.0614,-5.0598,-5.0591,-5.0568,-5.0558,-5.0574,-5.0577,-5.0583,-5.0735,-5.0572,-5.0576,-5.0579,-5.0884,-5.0891,-5.0897,0,0,0,0,0,0,-5.059,-5.0601,-5.0674,-5.0631,-5.0638,-5.0597,-5.0627,-5.0617,-5.063,-5.0596,-5.0588,-5.059,-5.057,-5.0576,-5.0659,-5.0733,-5.0579,-5.0583,-5.0878,-5.0886,-5.0894,-5.1041,0,0,0,0,0,0,-5.0587,-5.0601,-5.065,-5.0633,-5.0641,-5.0751,-5.0631,-5.062,-5.0639,-5.0625,-5.0615,-5.0608,-5.0566,-5.0652,-5.0664,-5.0737,-5.0587,-5.0871,-5.0882,-5.0891,-5.1029,-5.1053,-5.1073,0,0,0,0,0,-5.0583,-5.0691,-5.0653,-5.0664,-5.0702,-5.0756,-5.076,-5.071,-5.0645,-5.0694,-5.0673,-5.0609,-5.0723,-5.0662,-5.0673,-5.075,-5.0866,-5.0879,-5.089,-5.1019,-5.1048,-5.1073,0,0,0,0,0,0,-5.0717,-5.0688,-5.0645,-5.0751,-5.0757,-5.0734,-5.0795,-5.0742,-5.0766,-5.0753,-5.0689,-5.0688,-5.0781,-5.0773,-5.0705,-5.0876,-5.0783,-5.0798,-5.0877,-5.0905,-5.0926,-5.0926,-5.0591,0,0,0,0,0,-5.0759,-5.0806,-5.0777,-5.0873,-5.0878,-5.0837,-5.0858,-5.0819,-5.0822,-5.0824,-5.0809,-5.0815,-5.0852,-5.0878,-5.091,-5.1027,-5.1023,-5.1086,-5.1108,-5.1126,-5.114,-5.1202,-5.1229,-5.0937,-5.0937,-5.0936,0,0,-5.0846,-5.0836,-5.0869,-5.09,-5.09,-5.0949,-5.0839,-5.0896,-5.0932,-5.0833,-5.091,-5.0899,-5.0902,-5.1003,-5.1046,-5.0999,-5.122,-5.1142,-5.1157,-5.116,-5.1217,-5.1245,-5.127,-5.0945,-5.0944,-5.0942,0,0,-5.103,-5.1027,-5.1106,-5.1109,-5.111,-5.1082,-5.1101,-5.1087,-5.1076,-5.1153,-5.1079,-5.1121,-5.1187,-5.1191,-5.1203,-5.1389,-5.1331,-5.1402,-5.1517,-5.1578,-5.1601,-5.1621,-5.1688,-5.1713,-5.1416,-5.1416,-5.1416,0,-5.1137,-5.1209,-5.1154,-5.1216,-5.1232,-5.1144,-5.1224,-5.1229,-5.1242,-5.1254,-5.1202,-5.1282,-5.1278,-5.1379,-5.1424,-5.1436,-5.1456,-5.1402,-5.1602,-5.1622,-5.164,-5.1703,-5.1728,-5.1424,-5.1423,-5.1423,-5.1422,0,-5.1342,-5.1393,-5.1457,-5.1471,-5.1494,-5.1565,-5.152,-5.155,-5.1509,-5.1487,-5.1566,-5.1558,-5.1587,-5.1608,-5.1569,-5.1704,-5.1675,-5.1614,-5.1519,-5.1677,-5.1735,-5.1759,-5.1437,-5.1434,-5.1431,-5.1429,0,0,-5.1609,-5.1593,-5.1617,-5.1623,-5.1619,-5.1657,-5.1724,-5.1753,-5.178,-5.1792,-5.1846,-5.1904,-5.1847,-5.186,-5.182,-5.1874,-5.2023,-5.1806,-5.1805,-5.1847,-5.2172,-5.2218,-5.2247,-5.1984,-5.1989,-5.1992,-5.2172,0,-5.1787,-5.1901,-5.1853,-5.1972,-5.2018,-5.1936,-5.1994,-5.1998,-5.1979,-5.2016,-5.1994,-5.2037,-5.1958,-5.1966,-5.2015,-5.1994,-5.2087,-5.1981,-5.2035,-5.2037,-5.2037,-5.2277,-5.2326,-5.2495,-5.2194,-5.2198,-5.22,0,-5.201,-5.2032,-5.2155,-5.2143,-5.216,-5.2214,-5.2237,-5.2273,-5.2276,-5.2258,-5.2273,-5.2221,-5.2286,-5.2193,-5.2282,-5.2211,-5.223,-5.2224,-5.2229,-5.2232,-5.2128,-5.2287,-5.2548,-5.2574,-5.2236,-5.2233,-5.223,0,-5.2193,-5.2253,-5.2334,-5.2342,-5.2329,-5.2369,-5.2366,-5.2364,-5.2384,-5.2404,-5.2417,-5.2445,-5.246,-5.2483,-5.244,-5.2376,-5.2535,-5.2438,-5.2522,-5.2524,-5.2559,-5.2557,-5.2828,-5.2572,-5.2572,-5.2571,-5.2571,0,-5.2397,-5.2476,-5.2416,-5.2466,-5.2552,-5.2497,-5.2583,-5.2571,-5.257,-5.2616,-5.2547,-5.2592,-5.2532,-5.2572,-5.2539,-5.2618,-5.2625,-5.2613,-5.2603,-5.2619,-5.262,-5.263,-5.2617,-5.2578,-5.2577,-5.2575,-5.2574,0,-5.2616,-5.2579,-5.2662,-5.2645,-5.2642,-5.2706,-5.269,-5.2736,-5.2712,-5.2772,-5.2783,-5.2745,-5.2788,-5.2748,-5.2788,-5.2766,-5.2872,-5.2845,-5.2871,-5.2863,-5.295,-5.2942,-5.3236,-5.3271,-5.2994,-5.2996,-5.2999,0,-5.2748,-5.2807,-5.2795,-5.2822,-5.2823,-5.2866,-5.2887,-5.2835,-5.2859,-5.2867,-5.2912,-5.2949,-5.2976,-5.3048,-5.3025,-5.3055,-5.3029,-5.313,-5.3033,-5.3047,-5.303,-5.3027,-5.3033,-5.3149,-5.3153,-5.3155,-5.3157,0,-5.2987,-5.2966,-5.2999,-5.3026,-5.3053,-5.3072,-5.3085,-5.3111,-5.3057,-5.3088,-5.3131,-5.3152,-5.3194,-5.3231,-5.3255,-5.3251,-5.3196,-5.3188,-5.3209,-5.3226,-5.3239,-5.3233,-5.2924,-5.3182,-5.3179,-5.3177,-5.3176,-5.3175,-5.3166,-5.3215,-5.3215,-5.3254,-5.3258,-5.3272,-5.3315,-5.3296,-5.3331,-5.3361,-5.3328,-5.3381,-5.3383,-5.3409,-5.3412,-5.3453,-5.341,-5.3441,-5.3448,-5.3457,-5.3469,-5.3233,-5.3457,-5.3456,-5.3455,-5.3455,-5.3454,0,-5.3401,-5.3397,-5.3434,-5.3455,-5.3486,-5.3432,-5.3444,-5.3473,-5.352,-5.3527,-5.3555,-5.3604,-5.3641,-5.3621,-5.3652,-5.3689,-5.3664,-5.3699,-5.3695,-5.3695,-5.3506,-5.3484,-5.3718,-5.3718,-5.3718,-5.3718,-5.3718,-5.3718,-5.3527,-5.3606,-5.3586,-5.3667,-5.3662,-5.3713,-5.3725,-5.3738,-5.3742,-5.3801,-5.3831,-5.3818,-5.3814,-5.3844,-5.3876,-5.3869,-5.3883,-5.3927,-5.3912,-5.3735,-5.3709,-5.3684,-5.3663,-5.3931,-5.3931,-5.4098,-5.4099,-5.4101]},{"header":{"parameterUnit":"m.s-1","parameterCategory":1,"la1":30.2991,"la2":30.254,"lo1":-89.0895,"lo2":-89.0444,"dy":0.0017,"dx":0.0017,"nx":28,"ny":28,"refTime":"2024-10-16T03:00:00:Z","depth":0,"parameterNumber":3,"parameterNumberName":"V-component_of_WINDS"},"data":[0,0,0,0,0,0,0,0,0,0,0,0,0,0,0,0,0,0,0,0,0,0,0,0,0,0,0,0,0,0,0,0,0,0,0,0,0,0,0,0,0,0,0,0,0,0,0,0,0,0,0,0,0,0,0,0,0,0,-2.909,-2.909,0,-2.9103,-2.9103,-2.9103,-2.9079,-2.9078,-2.9077,-2.9076,-2.9089,-2.909,-2.9091,0,0,0,0,0,0,0,0,0,0,0,0,0,-2.9043,-2.9044,-2.909,-2.909,-2.909,-2.9103,-2.9103,-2.9103,-2.9079,-2.9078,-2.9077,-2.9076,-2.9088,-2.909,-2.9091,0,0,0,0,0,0,0,0,0,0,0,0,0,-2.906,-2.9044,-2.909,-2.908,-2.9079,-2.9103,-2.9103,-2.9103,-2.9079,-2.9078,-2.9077,-2.9075,-2.9088,-2.909,-2.9091,-2.9125,0,0,-2.9096,-2.9097,0,0,0,0,0,0,0,0,-2.9059,-2.9062,-2.9081,-2.908,-2.908,-2.9088,-2.9091,-2.911,-2.9079,-2.9079,-2.9076,-2.9075,-2.9089,-2.9091,-2.9096,-2.9126,-2.9126,-2.9096,-2.9097,-2.9098,-2.9098,0,0,0,0,0,0,0,-2.9058,-2.9061,-2.9095,-2.9081,-2.908,-2.9074,-2.9075,-2.9094,-2.9091,-2.9079,-2.9077,-2.9079,-2.9089,-2.9094,-2.9096,-2.9127,-2.9096,-2.9098,-2.9099,-2.9099,-2.9183,-2.9184,0,0,0,0,0,0,-2.9058,-2.906,-2.9094,-2.9095,-2.9066,-2.9076,-2.9077,-2.9086,-2.909,-2.909,-2.908,-2.9078,-2.9092,-2.9094,-2.9096,-2.9135,-2.9098,-2.9099,-2.91,-2.9182,-2.9184,-2.9185,0,0,0,0,0,0,-2.9057,-2.9062,-2.9094,-2.9077,-2.9081,-2.9078,-2.9089,-2.9087,-2.9093,-2.9091,-2.909,-2.9086,-2.9091,-2.9094,-2.9118,-2.9135,-2.91,-2.9102,-2.9181,-2.9182,-2.9184,-2.9214,0,0,0,0,0,0,-2.9056,-2.9061,-2.9075,-2.9078,-2.9082,-2.9116,-2.909,-2.9088,-2.9096,-2.9093,-2.9097,-2.9097,-2.9091,-2.9116,-2.9119,-2.9137,-2.9103,-2.9179,-2.9181,-2.9184,-2.9212,-2.9217,-2.9221,0,0,0,0,0,-2.9055,-2.9083,-2.9076,-2.908,-2.9099,-2.9117,-2.9119,-2.9112,-2.9097,-2.911,-2.9109,-2.9097,-2.9133,-2.9118,-2.9122,-2.9141,-2.9178,-2.9181,-2.9183,-2.9209,-2.9216,-2.9221,0,0,0,0,0,0,-2.9083,-2.9083,-2.9075,-2.9106,-2.9111,-2.9113,-2.9129,-2.9119,-2.9129,-2.9126,-2.9116,-2.9117,-2.9143,-2.9144,-2.9128,-2.9173,-2.9153,-2.9157,-2.9171,-2.9177,-2.9182,-2.9181,-2.9104,0,0,0,0,0,-2.9092,-2.9107,-2.9107,-2.9134,-2.9137,-2.9133,-2.9141,-2.9134,-2.914,-2.9142,-2.9143,-2.9148,-2.916,-2.9169,-2.9181,-2.9212,-2.9212,-2.9226,-2.9231,-2.9235,-2.9238,-2.9253,-2.9259,-2.9194,-2.9194,-2.9194,0,0,-2.9113,-2.9115,-2.9125,-2.914,-2.9143,-2.9158,-2.9135,-2.9153,-2.9163,-2.9145,-2.9167,-2.9167,-2.9173,-2.92,-2.9212,-2.9202,-2.9256,-2.9239,-2.9242,-2.9243,-2.9257,-2.9263,-2.9269,-2.9196,-2.9196,-2.9195,0,0,-2.9157,-2.9161,-2.9183,-2.9187,-2.9193,-2.9189,-2.9194,-2.9197,-2.9197,-2.9219,-2.9204,-2.9217,-2.9239,-2.9243,-2.9248,-2.9292,-2.928,-2.9296,-2.9321,-2.9336,-2.9341,-2.9346,-2.936,-2.9366,-2.9299,-2.93,-2.93,0,-2.9182,-2.9204,-2.9196,-2.9214,-2.922,-2.9203,-2.9224,-2.9229,-2.9238,-2.9242,-2.9231,-2.9257,-2.926,-2.9287,-2.9297,-2.9302,-2.9307,-2.9295,-2.9341,-2.9346,-2.935,-2.9364,-2.9369,-2.9301,-2.9301,-2.9301,-2.9301,0,-2.9233,-2.9249,-2.9266,-2.9275,-2.9283,-2.9303,-2.9296,-2.9305,-2.9298,-2.9295,-2.9317,-2.932,-2.933,-2.9337,-2.933,-2.9362,-2.9356,-2.9343,-2.9322,-2.9358,-2.9371,-2.9376,-2.9304,-2.9303,-2.9303,-2.9302,0,0,-2.9297,-2.9299,-2.9306,-2.9309,-2.9313,-2.9325,-2.9343,-2.9353,-2.9361,-2.9367,-2.9382,-2.94,-2.9388,-2.9393,-2.9387,-2.94,-2.9433,-2.9385,-2.9385,-2.9393,-2.9468,-2.9477,-2.9483,-2.9425,-2.9426,-2.9427,-2.9467,0,-2.934,-2.9372,-2.9363,-2.9395,-2.9408,-2.9391,-2.9407,-2.9411,-2.9409,-2.942,-2.9417,-2.943,-2.9413,-2.9416,-2.9429,-2.9426,-2.9448,-2.9424,-2.9438,-2.9439,-2.9436,-2.949,-2.95,-2.9537,-2.9472,-2.9473,-2.9473,0,-2.9395,-2.9403,-2.9435,-2.9435,-2.9441,-2.9455,-2.9463,-2.9474,-2.9477,-2.9475,-2.948,-2.9471,-2.9488,-2.9467,-2.949,-2.9474,-2.9479,-2.9479,-2.948,-2.948,-2.9458,-2.9491,-2.9549,-2.9554,-2.9481,-2.9481,-2.948,0,-2.9436,-2.9455,-2.9476,-2.948,-2.9481,-2.9491,-2.9492,-2.9494,-2.9501,-2.9508,-2.9511,-2.952,-2.9525,-2.9532,-2.9525,-2.9511,-2.9548,-2.9527,-2.9546,-2.9546,-2.9554,-2.9553,-2.9613,-2.9559,-2.9559,-2.9559,-2.9559,0,-2.9485,-2.9505,-2.9495,-2.9508,-2.9529,-2.9519,-2.9541,-2.954,-2.9542,-2.9554,-2.954,-2.9552,-2.9541,-2.9552,-2.9546,-2.9565,-2.9568,-2.9565,-2.9564,-2.9566,-2.9566,-2.9569,-2.9566,-2.956,-2.956,-2.956,-2.9559,0,-2.9535,-2.9529,-2.9551,-2.955,-2.955,-2.9566,-2.9565,-2.9576,-2.9572,-2.9588,-2.9591,-2.9585,-2.9596,-2.959,-2.9601,-2.9597,-2.9622,-2.9617,-2.9621,-2.9619,-2.9637,-2.9635,-2.97,-2.9707,-2.9649,-2.965,-2.965,0,-2.9566,-2.9581,-2.9581,-2.9588,-2.959,-2.9601,-2.9607,-2.9598,-2.9604,-2.9608,-2.9619,-2.9629,-2.9637,-2.9655,-2.9652,-2.9661,-2.9655,-2.9677,-2.9657,-2.9658,-2.9654,-2.9653,-2.9654,-2.9681,-2.9682,-2.9683,-2.9683,0,-2.9622,-2.9618,-2.9627,-2.9634,-2.9642,-2.9647,-2.9652,-2.9658,-2.9648,-2.9656,-2.9667,-2.9673,-2.9685,-2.9694,-2.9701,-2.9702,-2.9691,-2.969,-2.9694,-2.9697,-2.9698,-2.9696,-2.9631,-2.9688,-2.9688,-2.9687,-2.9687,-2.9687,-2.9663,-2.9674,-2.9676,-2.9686,-2.9688,-2.9692,-2.9702,-2.9699,-2.9709,-2.9717,-2.971,-2.9723,-2.9725,-2.9733,-2.9735,-2.9745,-2.9736,-2.9742,-2.9744,-2.9746,-2.9748,-2.9697,-2.9746,-2.9746,-2.9746,-2.9746,-2.9745,0,-2.9716,-2.9716,-2.9725,-2.9731,-2.9739,-2.9727,-2.9731,-2.9738,-2.975,-2.9752,-2.976,-2.9772,-2.9781,-2.9778,-2.9786,-2.9794,-2.9789,-2.9796,-2.9795,-2.9795,-2.9756,-2.9751,-2.98,-2.98,-2.98,-2.98,-2.98,-2.98,-2.9745,-2.9764,-2.9759,-2.9779,-2.9778,-2.979,-2.9793,-2.9797,-2.9798,-2.9812,-2.982,-2.9817,-2.9817,-2.9825,-2.9833,-2.9831,-2.9834,-2.9844,-2.984,-2.9804,-2.9798,-2.9793,-2.9788,-2.9845,-2.9845,-2.9879,-2.9879,-2.988]}]]